Location: Newark
(52.0572°N, 20.8422°E)
Time: 10:19:26
(UTC+00:00)

N. Korean satellite - Visible Passes

Search period start: 16 October 2019 00:00
Search period end: 26 October 2019 00:00
Orbit: 455 x 508 km, 97.2° (Epoch: 15 October)

Date Brightness Start Highest point End Pass type
(mag) Time Alt. Az. Time Alt. Az. Time Alt. Az.
16 Oct 10.4 03:23:03 10° ENE 03:24:12 11° E 03:25:20 10° ESE visible
17 Oct 10.1 16:45:06 10° SW 16:47:06 15° W 16:49:08 10° NW visible
18 Oct 8.9 04:04:09 10° NNE 04:07:22 30° E 04:10:36 10° SSE visible
18 Oct 9.1 16:18:39 10° SSW 16:21:36 26° W 16:24:34 10° NW visible
19 Oct 9.9 03:39:27 10° NE 03:41:53 17° E 03:44:20 10° SE visible
21 Oct 7.8 04:21:25 10° NNE 04:24:56 47° E 04:28:28 10° S visible
21 Oct 9.9 16:36:48 10° SW 16:39:12 18° W 16:41:38 10° NW visible
22 Oct 9.2 03:56:26 10° NE 03:59:31 25° E 04:02:36 10° SSE visible
22 Oct 8.7 16:10:35 10° SSW 16:13:42 32° W 16:16:53 10° NNW visible
23 Oct 10.1 03:31:54 10° NE 03:34:00 15° E 03:36:06 10° SE visible
24 Oct 6.9 04:38:48 10° NNE 04:42:26 75° E 04:46:07 10° S visible
24 Oct 10.3 16:55:31 10° WSW 16:56:50 12° W 16:58:10 10° WNW visible
25 Oct 8.3 04:13:37 10° NNE 04:17:04 39° E 04:20:33 10° SSE visible
25 Oct 9.5 16:28:34 10° SW 16:31:16 21° W 16:34:01 10° NW visible
